Vertical_Velocity
2 1 -5 -9 4 -2 -0 -2 -1 1 1 1 2 0 -3 -1 -5 -4 0 -2 -4 -0 4 2 2 6 -5
-5 -5 -8 3 -1 -4 -1 -2 -3 -5 -5 -1 1 -0 -1 -3 -2 -3 -3 -5 -4 -1 1 1 -3 -5 -5
-4 1 1 -3 -2 -1 0 0 -3 -2 -4 -3 1 -2 -2 -1 -1 -2 -5 -1 -5 -6 -6 -4 -5 -4 -6
-1 1 -3 -3 -0 -0 -2 -4 -9 -10 -1 2 -1 -2 -3 0 -1 -1 -0 0 0 -2 -2 -3 -0 -0 1
-1 2 1 -0 -2 -7 -2 -2 -7 -10 -2 -4 -5 -4 -4 -3 -4 -0 1 -0 -1 2 2 0 -2 1 1
0 4 0 -6 -3 1 0 -4 -10 -8 -9 1 -3 -3 1 -4 -1 -2 -3 0 3 1 -1 -1 1 -1 -5
-1 -0 -1 2 4 -2 -2 0 -3 -7 5 -2 2 -11 0 -7 -2 -5 -1 -0 1 3 0 0 -0 2 3
4 2 -1 -7 -3 -2 -3 -1 -4 -10 7 -14 6 -3 -3 -6 -4 -3 -1 1 -2 0 2 2 3 2 -1
-1 -2 -1 -1 3 1 1 -0 -8 -8 2 -4 -2 -5 -4 -4 -3 -3 -2 -3 -1 2 1 1 1 1 -1
0 3 2 1 1 2 1 -2 2 -9 3 -7 1 7 -17 -5 -4 0 2 2 1 3 0 1 1 1 -2
-2 -1 -1 -1 -0 1 3 2 0 -1 13 5 -7 1 7 -15 -3 -3 -2 -1 -1 -3 1 3 1 6 -3
-3 -2 -3 -1 1 0 1 2 1 -6 1 9 -12 7 7 -4 -12 -1 -2 1 -1 -2 -1 -0 1 1 5
-2 -1 -1 -2 -1 -1 2 -1 -0 4 5 5 1 0 5 -4 -5 -13 -5 -16 10 -1 3 -0 -2 2 -9
-0 1 0 0 0 -1 -2 -2 -6 3 2 3 3 3 -3 1 5 -15 6 -1 -6 10 -5 -2 4 4 -0
1 -1 -0 -2 -0 1 1 -1 -3 -11 -10 7 6 2 2 5 -5 11 -7 -8 8 -7 1 -11 3 2 0
-0 -1 -2 -2 -3 -0 -2 -0 -4 -1 -3 -2 -5 -11 -3 -6 -4 -11 -0 -8 -3 -0 7 -1 -7 -2 1
-0 1 -1 -1 -2 -2 -1 0 -5 -1 2 1 -4 6 1 -7 3 9 -3 5 -0 -7 3 6 -9 -8 3
Height
1493 1494 1494 1494 1492 1490 1488 1486 1484 1482 1477 1473 1468 1464 1462 1462 1460 1461 1459 1457 1456 1455 1453 1452 1452 1451 1451
1486 1486 1487 1488 1484 1482 1480 1477 1475 1472 1469 1465 1460 1456 1453 1451 1451 1451 1449 1447 1445 1444 1442 1441 1441 1440 1440
1479 1479 1478 1478 1476 1473 1471 1467 1465 1463 1461 1457 1453 1449 1446 1443 1442 1441 1439 1436 1435 1433 1432 1431 1430 1429 1428
1474 1473 1470 1470 1468 1465 1462 1459 1456 1455 1453 1448 1445 1442 1439 1436 1433 1431 1428 1425 1423 1421 1420 1419 1419 1418 1417
1470 1468 1464 1462 1461 1460 1456 1451 1449 1448 1443 1440 1436 1433 1430 1427 1425 1422 1419 1416 1413 1411 1410 1409 1408 1407 1407
1465 1461 1458 1457 1456 1454 1450 1448 1443 1442 1436 1431 1430 1424 1422 1418 1416 1412 1409 1406 1404 1402 1400 1398 1397 1396 1396
1459 1456 1452 1451 1450 1447 1445 1443 1440 1435 1430 1421 1422 1416 1413 1409 1407 1403 1400 1397 1394 1392 1390 1388 1387 1386 1385
1452 1449 1447 1446 1445 1442 1439 1437 1433 1429 1424 1414 1412 1407 1403 1398 1396 1393 1391 1389 1386 1382 1380 1379 1377 1375 1374
1445 1444 1442 1441 1440 1437 1435 1431 1425 1420 1417 1410 1403 1397 1392 1387 1385 1383 1381 1378 1376 1372 1369 1366 1364 1363 1361
1440 1439 1438 1437 1435 1433 1429 1424 1420 1412 1410 1406 1398 1393 1382 1377 1376 1374 1371 1369 1365 1362 1358 1355 1353 1350 1347
1435 1434 1433 1432 1429 1427 1423 1418 1414 1409 1407 1401 1392 1389 1386 1373 1366 1365 1362 1358 1353 1349 1346 1343 1341 1338 1335
1432 1430 1428 1427 1424 1421 1418 1414 1410 1404 1401 1397 1388 1384 1378 1369 1359 1355 1352 1348 1344 1338 1335 1333 1331 1329 1326
1429 1426 1424 1421 1419 1416 1413 1408 1402 1399 1394 1390 1383 1378 1372 1364 1355 1347 1343 1338 1335 1330 1327 1323 1319 1317 1314
1424 1421 1419 1417 1414 1410 1405 1400 1394 1390 1387 1382 1377 1371 1363 1357 1351 1341 1338 1332 1327 1322 1318 1312 1308 1305 1302
1419 1416 1414 1410 1408 1405 1400 1395 1389 1382 1377 1374 1369 1362 1356 1351 1341 1335 1330 1323 1319 1313 1309 1301 1297 1295 1292
1414 1411 1408 1406 1402 1399 1395 1390 1383 1377 1369 1364 1358 1353 1347 1341 1337 1326 1322 1316 1310 1306 1301 1294 1283 1283 1281
1410 1407 1404 1401 1397 1393 1389 1383 1376 1370 1363 1357 1351 1346 1339 1331 1328 1326 1317 1310 1304 1298 1294 1288 1280 1273 1273